THORAD AGENA D DEB, 4914

Orbit data source: Space-Track

THORAD AGENA D DEB, 4914 is space debris in SSO originally from a launch on Wed, 08 Apr 1970 UTC launched from the Air Force Western Test Range (AFWTR). Debris objects in space refer to the collection of defunct objects orbiting the Earth. Examples of debris include non-operational satellites, rocket bodies, and fragments generated from explosions, collisions, or faulty payload assembly.

Loading next visibility...
Identifier
4914, 1970-025FL
Orbit
SSO
Country
Flag of USUS
Related business
Manufacturer
Unknown
Mission
Spacecraft
Bus & Motor
Unknown
Mass
Unknown
Launch date (UTC)
1970-04-08 (56 years ago)
Launch vehicle
Unknown
Launch site
Air Force Western Test Range (AFWTR)
Object type
Payload
Rocket body
Debris
Shape & HBR
Unknown shape, 0.1 m
Radar Cross Section
Medium (>0.1 m² and <1 m²)

Expand to show TLE details & history
Last TLE update: 12 hours ago

TLE from 12 hours ago
0 THORAD AGENA D DEB
1  4914U 70025FL  26208.31241972  .00003009  00000-0  33609-2 0  9994
2  4914  99.4412 153.6682 0079078 103.7031  50.1651 13.70660621780270
Epoch: 2026-07-27T07:29Z
TLE epoch observation values (Epoch: 2026-07-27T07:29:53.063Z)
Latitude
25.09291°
Longitude
-79.35789°
Altitude
963.064 km
Speed
7.391 km/s
True Right ascension
22h 32m 26s
True Declination
24° 57' 53"
Sunlit
Object was in full shadow at epoch
Visualization orbit readout
Latitude
Unknown
Longitude
Unknown
Altitude
Unknown
Speed
Unknown
Apparent Right ascension
Unknown
Apparent Declination
Unknown
Sunlit
N/A
Visualization observer readout
Local Sidereal Time
08:33:29
Azimuth
Unknown
Elevation
Unknown
Doppler factor
Unknown
Orbital elements
Apogee altitude
1,052.762 km
Perigee altitude
936.16 km
Semi-major axis
7,372.598 km
Eccentricity
0.00791
Inclination
99.4412°
RAAN
153.6682°
Arg. of periapsis
103.7031°
True anomaly
50.86536°
Mean anomaly
50.1651°
Eccentric anomaly
50.51478°
Mean motion
3.42856 °/min
Orbital period
105 mins
BSTAR
0.0033609
Loading maneuver chart data...
Computing Atmospheric mass density...

Documentation

Showing up to 5 results
|